Location: Chimay
(50.0486°N, 4.3171°E)
Time: 15:59:28
(UTC+00:00)

COSMOS 2428 - Pass Details

Date: 08 August 2020
Orbit: 844 x 859 km, 70.9° (Epoch: 18 September)

Event Time Altitude Azimuth Distance (km) Brightness Sun altitude
Rises 22:11:14 0° 333° (NNW) 3,433 7.5 -20.8°
Reaches altitude 10° 22:14:02 10° 344° (NNW) 2,496 6.3 -21.0°
Maximum altitude 22:18:59 29° 44° (NE) 1,536 4.2 -21.3°
Enters shadow 22:22:36 16° 94° (E) 2,111 4.5 -21.5°
